CCA550Z ZBAA-ZYTX

Flight info

Callsign CCA550Z
Flight time 1h 0m
Altitude 24600
Route DOTRA B334 KAKAT W31 CHG A575 OMDUS
Aircraft A359/H-SDE2E3GHIJ3J4J5LM1ORWXY/LB1D1

Departure

Time 2026-04-22 03:17
Airport Beijing Capital International Airport (ZBAA)

Arrival

Time 2026-04-22 04:17
Airport Shenyang Taoxian International Airport (ZYTX)
Time Latitude Longitude Altitude Speed Heading
2026-04-22 02:55 40.05847 116.59442 130 ft 0 kts 263°
2026-04-22 03:09 40.05848 116.59450 130 ft 3 kts 263°
2026-04-22 03:10 40.05850 116.59474 124 ft 3 kts 263°
2026-04-22 03:10 40.05854 116.59500 124 ft 3 kts 247°
2026-04-22 03:10 40.05864 116.59523 124 ft 3 kts 226°
2026-04-22 03:10 40.05877 116.59538 126 ft 0 kts 207°
2026-04-22 03:12 40.05864 116.59534 124 ft 2 kts 187°
2026-04-22 03:13 40.05823 116.59539 127 ft 11 kts 172°
2026-04-22 03:13 40.05755 116.59550 126 ft 4 kts 172°
2026-04-22 03:13 40.05739 116.59554 126 ft 6 kts 167°
2026-04-22 03:13 40.05713 116.59600 128 ft 7 kts 96°
2026-04-22 03:14 40.05716 116.59651 128 ft 10 kts 83°
2026-04-22 03:14 40.05720 116.59693 126 ft 7 kts 84°
2026-04-22 03:14 40.05680 116.59758 126 ft 9 kts 163°
2026-04-22 03:14 40.05640 116.59816 125 ft 10 kts 97°
2026-04-22 03:15 40.05643 116.59848 127 ft 0 kts 81°
2026-04-22 03:15 40.05649 116.59901 127 ft 13 kts 81°
2026-04-22 03:15 40.05683 116.59996 125 ft 3 kts 357°
2026-04-22 03:16 40.05704 116.59991 130 ft 4 kts 351°
2026-04-22 03:16 40.05826 116.59971 129 ft 50 kts 353°
2026-04-22 03:16 40.06431 116.59875 125 ft 123 kts 353°
2026-04-22 03:16 40.07487 116.59712 223 ft 174 kts 354°
2026-04-22 03:17 40.08281 116.59608 748 ft 171 kts 354°
2026-04-22 03:17 40.09458 116.59403 1642 ft 170 kts 353°
2026-04-22 03:17 40.10660 116.59179 2299 ft 182 kts 354°
2026-04-22 03:17 40.11986 116.58950 2632 ft 202 kts 356°
2026-04-22 03:18 40.13452 116.58735 2985 ft 224 kts 359°
2026-04-22 03:18 40.15086 116.58522 3301 ft 248 kts 357°
2026-04-22 03:18 40.16853 116.58277 3872 ft 259 kts 356°
2026-04-22 03:18 40.18672 116.58008 4886 ft 265 kts 355°
2026-04-22 03:19 40.20496 116.57730 6260 ft 263 kts 354°
2026-04-22 03:19 40.22312 116.57444 7599 ft 263 kts 353°
2026-04-22 03:19 40.24139 116.57151 8919 ft 265 kts 353°
2026-04-22 03:19 40.25971 116.56849 10247 ft 267 kts 352°
2026-04-22 03:20 40.27870 116.56529 11073 ft 286 kts 351°
2026-04-22 03:20 40.29927 116.56179 11592 ft 311 kts 351°
2026-04-22 03:20 40.32152 116.55796 12229 ft 331 kts 351°
2026-04-22 03:20 40.34474 116.55391 13246 ft 339 kts 350°
2026-04-22 03:21 40.36830 116.54985 14347 ft 344 kts 349°
2026-04-22 03:21 40.39222 116.54574 15292 ft 351 kts 349°
2026-04-22 03:21 40.41686 116.54176 16164 ft 361 kts 351°
2026-04-22 03:21 40.44243 116.54151 17073 ft 372 kts 358°
2026-04-22 03:22 40.46855 116.54328 17988 ft 380 kts 359°
2026-04-22 03:22 40.49527 116.54545 18717 ft 389 kts 359°
2026-04-22 03:22 40.52235 116.55093 19540 ft 400 kts 10°
2026-04-22 03:22 40.54809 116.56637 20357 ft 417 kts 28°
2026-04-22 03:23 40.57131 116.59011 21104 ft 427 kts 35°
2026-04-22 03:23 40.59393 116.61595 21810 ft 434 kts 36°
2026-04-22 03:23 40.61677 116.64227 22475 ft 440 kts 36°
2026-04-22 03:23 40.63996 116.66884 23181 ft 445 kts 36°
2026-04-22 03:24 40.66326 116.69532 23735 ft 452 kts 36°
2026-04-22 03:24 40.68785 116.72311 23959 ft 467 kts 36°
2026-04-22 03:24 40.71299 116.75149 23997 ft 484 kts 36°
2026-04-22 03:24 40.73955 116.77861 24039 ft 484 kts 28°
2026-04-22 03:25 40.76935 116.79702 24238 ft 474 kts 12°
2026-04-22 03:25 40.80131 116.80539 24527 ft 464 kts
2026-04-22 03:25 40.83329 116.80928 24592 ft 459 kts 358°
2026-04-22 03:25 40.86525 116.81099 24596 ft 463 kts 356°
2026-04-22 03:26 40.89767 116.81174 24590 ft 467 kts 356°
2026-04-22 03:26 40.93013 116.81239 24588 ft 467 kts 356°
2026-04-22 03:26 40.96271 116.81328 24594 ft 468 kts 356°
2026-04-22 03:26 40.99532 116.81445 24589 ft 469 kts 357°
2026-04-22 03:27 41.02795 116.81635 24592 ft 471 kts 360°
2026-04-22 03:27 41.06053 116.82323 24593 ft 478 kts
2026-04-22 03:27 41.09204 116.83799 24594 ft 485 kts 21°
2026-04-22 03:27 41.12088 116.86182 24586 ft 494 kts 34°
2026-04-22 03:28 41.14517 116.89454 24596 ft 501 kts 49°
2026-04-22 03:28 41.16302 116.93454 24592 ft 507 kts 64°
2026-04-22 03:28 41.17402 116.97910 24603 ft 510 kts 74°
2026-04-22 03:28 41.18122 117.02519 24595 ft 511 kts 79°
2026-04-22 03:29 41.18654 117.07179 24597 ft 511 kts 81°
2026-04-22 03:29 41.19111 117.11855 24596 ft 511 kts 82°
2026-04-22 03:29 41.19558 117.16474 24599 ft 511 kts 81°
2026-04-22 03:29 41.20042 117.21213 24639 ft 513 kts 81°
2026-04-22 03:30 41.20548 117.25862 25194 ft 515 kts 80°
2026-04-22 03:30 41.21080 117.30550 25984 ft 514 kts 80°
2026-04-22 03:30 41.21630 117.35270 26448 ft 519 kts 80°
2026-04-22 03:30 41.22189 117.40018 26593 ft 519 kts 79°
2026-04-22 03:31 41.22749 117.44757 26604 ft 520 kts 79°
2026-04-22 03:31 41.23310 117.49512 26605 ft 522 kts 79°
2026-04-22 03:31 41.23871 117.54283 26611 ft 522 kts 80°
2026-04-22 03:31 41.24426 117.59057 26610 ft 522 kts 80°
2026-04-22 03:32 41.24977 117.63836 26611 ft 522 kts 80°
2026-04-22 03:32 41.25525 117.68605 26611 ft 523 kts 80°
2026-04-22 03:32 41.26072 117.73383 26610 ft 523 kts 80°
2026-04-22 03:32 41.26618 117.78156 26613 ft 522 kts 80°
2026-04-22 03:33 41.27162 117.82931 26611 ft 522 kts 80°
2026-04-22 03:33 41.27702 117.87708 26612 ft 522 kts 80°
2026-04-22 03:33 41.28240 117.92485 26611 ft 523 kts 80°
2026-04-22 03:33 41.28776 117.97261 26614 ft 523 kts 80°
2026-04-22 03:34 41.29312 118.02043 26615 ft 523 kts 80°
2026-04-22 03:34 41.29846 118.06828 26612 ft 523 kts 80°
2026-04-22 03:34 41.30371 118.11556 26613 ft 523 kts 80°
2026-04-22 03:34 41.30901 118.16343 26615 ft 523 kts 80°
2026-04-22 03:35 41.31429 118.21130 26617 ft 523 kts 80°
2026-04-22 03:35 41.31956 118.25918 26621 ft 524 kts 80°
2026-04-22 03:35 41.32481 118.30712 26623 ft 524 kts 80°
2026-04-22 03:35 41.33006 118.35510 26623 ft 524 kts 80°
2026-04-22 03:36 41.33527 118.40304 26623 ft 524 kts 80°
2026-04-22 03:36 41.34046 118.45100 26629 ft 524 kts 80°
2026-04-22 03:36 41.34561 118.49898 26632 ft 524 kts 80°
2026-04-22 03:36 41.35075 118.54699 26635 ft 524 kts 80°
2026-04-22 03:37 41.35589 118.59506 26638 ft 524 kts 80°
2026-04-22 03:37 41.36097 118.64307 26640 ft 524 kts 80°
2026-04-22 03:37 41.36605 118.69107 26644 ft 524 kts 80°
2026-04-22 03:37 41.37113 118.73912 26650 ft 524 kts 80°
2026-04-22 03:38 41.37555 118.78112 26652 ft 524 kts 80°
2026-04-22 03:38 41.38060 118.82926 26652 ft 525 kts 81°
2026-04-22 03:38 41.38564 118.87739 26654 ft 525 kts 81°
2026-04-22 03:38 41.39064 118.92550 26658 ft 525 kts 81°
2026-04-22 03:39 41.39563 118.97380 26659 ft 525 kts 81°
2026-04-22 03:39 41.40052 119.02127 26659 ft 525 kts 81°
2026-04-22 03:39 41.40548 119.06953 26664 ft 525 kts 81°
2026-04-22 03:39 41.41040 119.11778 26659 ft 525 kts 81°
2026-04-22 03:40 41.41530 119.16599 26659 ft 525 kts 81°
2026-04-22 03:40 41.42015 119.21425 26659 ft 526 kts 81°
2026-04-22 03:40 41.42449 119.26269 26661 ft 526 kts 82°
2026-04-22 03:40 41.42860 119.31112 26661 ft 526 kts 82°
2026-04-22 03:41 41.43270 119.35956 26664 ft 526 kts 82°
2026-04-22 03:41 41.43681 119.40811 26662 ft 527 kts 82°
2026-04-22 03:41 41.44093 119.45668 26661 ft 527 kts 82°
2026-04-22 03:41 41.44504 119.50510 26661 ft 527 kts 82°
2026-04-22 03:42 41.44915 119.55374 26663 ft 527 kts 82°
2026-04-22 03:42 41.45323 119.60228 26663 ft 528 kts 82°
2026-04-22 03:42 41.45731 119.65091 26663 ft 528 kts 82°
2026-04-22 03:42 41.46137 119.69954 26665 ft 528 kts 82°
2026-04-22 03:43 41.46541 119.74823 26663 ft 528 kts 82°
2026-04-22 03:43 41.46937 119.79621 26661 ft 528 kts 82°
2026-04-22 03:43 41.47337 119.84491 26668 ft 528 kts 82°
2026-04-22 03:43 41.47735 119.89360 26668 ft 528 kts 82°
2026-04-22 03:44 41.48130 119.94234 26665 ft 529 kts 82°
2026-04-22 03:44 41.48526 119.99127 26671 ft 529 kts 82°
2026-04-22 03:44 41.48918 120.04002 26672 ft 529 kts 82°
2026-04-22 03:44 41.49282 120.08555 26672 ft 529 kts 82°
2026-04-22 03:45 41.49670 120.13442 26670 ft 529 kts 82°
2026-04-22 03:45 41.50057 120.18323 26672 ft 530 kts 82°
2026-04-22 03:45 41.50442 120.23227 26676 ft 530 kts 82°
2026-04-22 03:45 41.50824 120.28114 26680 ft 530 kts 82°
2026-04-22 03:46 41.51204 120.32999 26678 ft 530 kts 82°
2026-04-22 03:46 41.51582 120.37889 26676 ft 530 kts 82°
2026-04-22 03:46 41.51959 120.42784 26675 ft 530 kts 82°
2026-04-22 03:46 41.52334 120.47681 26675 ft 530 kts 82°
2026-04-22 03:47 41.52703 120.52575 26678 ft 530 kts 82°
2026-04-22 03:47 41.53069 120.57420 26675 ft 530 kts 82°
2026-04-22 03:47 41.53437 120.62309 26675 ft 531 kts 82°
2026-04-22 03:47 41.53805 120.67211 26678 ft 531 kts 82°
2026-04-22 03:48 41.54171 120.72118 26677 ft 531 kts 82°
2026-04-22 03:48 41.54535 120.77029 26676 ft 531 kts 82°
2026-04-22 03:48 41.54896 120.81934 26680 ft 531 kts 82°
2026-04-22 03:48 41.55255 120.86845 26679 ft 532 kts 82°
2026-04-22 03:49 41.55613 120.91766 26680 ft 532 kts 82°
2026-04-22 03:49 41.55967 120.96684 26679 ft 532 kts 82°
2026-04-22 03:49 41.56320 121.01600 26677 ft 532 kts 82°
2026-04-22 03:49 41.56671 121.06517 26675 ft 532 kts 82°
2026-04-22 03:50 41.57019 121.11433 26677 ft 532 kts 82°
2026-04-22 03:50 41.57366 121.16358 26672 ft 532 kts 83°
2026-04-22 03:50 41.57629 121.21290 26674 ft 533 kts 85°
2026-04-22 03:50 41.57777 121.26233 26674 ft 533 kts 86°
2026-04-22 03:51 41.57905 121.31192 26673 ft 534 kts 86°
2026-04-22 03:51 41.58034 121.36078 26670 ft 534 kts 86°
2026-04-22 03:51 41.58167 121.41032 26670 ft 534 kts 86°
2026-04-22 03:51 41.58301 121.45991 26669 ft 534 kts 86°
2026-04-22 03:52 41.58434 121.50945 26674 ft 534 kts 86°
2026-04-22 03:52 41.58566 121.55896 26576 ft 533 kts 86°
2026-04-22 03:52 41.58694 121.60819 26323 ft 525 kts 86°
2026-04-22 03:52 41.58818 121.65652 26071 ft 518 kts 86°
2026-04-22 03:53 41.58941 121.70456 25813 ft 516 kts 86°
2026-04-22 03:53 41.59062 121.75251 25575 ft 514 kts 86°
2026-04-22 03:53 41.59180 121.80009 25337 ft 513 kts 86°
2026-04-22 03:53 41.59294 121.84746 24766 ft 508 kts 86°
2026-04-22 03:54 41.59407 121.89460 23966 ft 508 kts 86°
2026-04-22 03:54 41.59518 121.94170 23201 ft 505 kts 86°
2026-04-22 03:54 41.59625 121.98822 22758 ft 494 kts 86°
2026-04-22 03:54 41.59728 122.03389 22657 ft 489 kts 86°
2026-04-22 03:55 41.59827 122.07830 22094 ft 482 kts 86°
2026-04-22 03:55 41.59721 122.12330 20996 ft 489 kts 94°
2026-04-22 03:55 41.59273 122.16835 20175 ft 489 kts 97°
2026-04-22 03:55 41.58763 122.21302 19481 ft 484 kts 98°
2026-04-22 03:56 41.58255 122.25726 18828 ft 479 kts 98°
2026-04-22 03:56 41.57757 122.30100 18145 ft 474 kts 98°
2026-04-22 03:56 41.57267 122.34417 17476 ft 467 kts 97°
2026-04-22 03:56 41.56783 122.38690 16806 ft 461 kts 97°
2026-04-22 03:57 41.56307 122.42899 16168 ft 455 kts 97°
2026-04-22 03:57 41.55838 122.47056 15469 ft 450 kts 97°
2026-04-22 03:57 41.55374 122.51145 14849 ft 444 kts 97°
2026-04-22 03:57 41.54912 122.55202 14241 ft 438 kts 97°
2026-04-22 03:58 41.54458 122.59172 13922 ft 425 kts 97°
2026-04-22 03:58 41.54015 122.63000 13646 ft 410 kts 97°
2026-04-22 03:58 41.53590 122.66697 13368 ft 397 kts 97°
2026-04-22 03:58 41.53180 122.70283 13095 ft 385 kts 97°
2026-04-22 03:59 41.52780 122.73768 12831 ft 374 kts 97°
2026-04-22 03:59 41.52389 122.77151 12581 ft 363 kts 96°
2026-04-22 03:59 41.52014 122.80392 12389 ft 352 kts 96°
2026-04-22 03:59 41.51642 122.83569 12217 ft 341 kts 97°
2026-04-22 04:00 41.51277 122.86647 11999 ft 332 kts 97°
2026-04-22 04:00 41.50913 122.89667 11608 ft 329 kts 97°
2026-04-22 04:00 41.50551 122.92677 11222 ft 327 kts 97°
2026-04-22 04:00 41.50195 122.95665 10821 ft 325 kts 97°
2026-04-22 04:01 41.49842 122.98625 10468 ft 322 kts 96°
2026-04-22 04:01 41.49491 123.01573 10092 ft 321 kts 96°
2026-04-22 04:01 41.49144 123.04501 9696 ft 318 kts 96°
2026-04-22 04:01 41.48797 123.07420 9286 ft 317 kts 96°
2026-04-22 04:02 41.48454 123.10304 8880 ft 314 kts 96°
2026-04-22 04:02 41.48110 123.13180 8452 ft 313 kts 96°
2026-04-22 04:02 41.47769 123.16043 8023 ft 312 kts 96°
2026-04-22 04:02 41.47425 123.18898 7598 ft 311 kts 96°
2026-04-22 04:03 41.47203 123.20784 7323 ft 310 kts 94°
2026-04-22 04:03 41.47362 123.23572 6907 ft 298 kts 65°
2026-04-22 04:03 41.48872 123.26458 6410 ft 280 kts 38°
2026-04-22 04:03 41.49785 123.27642 6140 ft 271 kts 37°
2026-04-22 04:04 41.51094 123.29332 5836 ft 252 kts 37°
2026-04-22 04:04 41.52288 123.30934 5622 ft 235 kts 38°
2026-04-22 04:04 41.53376 123.32455 5439 ft 219 kts 39°
2026-04-22 04:04 41.54376 123.33890 5256 ft 203 kts 40°
2026-04-22 04:05 41.55280 123.35223 5146 ft 186 kts 39°
2026-04-22 04:05 41.56147 123.36477 4765 ft 182 kts 39°
2026-04-22 04:05 41.57018 123.37696 4292 ft 181 kts 39°
2026-04-22 04:05 41.57905 123.38924 3711 ft 185 kts 41°
2026-04-22 04:06 41.58808 123.40216 3022 ft 197 kts 43°
2026-04-22 04:06 41.59717 123.41583 2719 ft 193 kts 45°
2026-04-22 04:06 41.60569 123.42942 2412 ft 187 kts 46°
2026-04-22 04:06 41.61378 123.44223 2237 ft 177 kts 45°
2026-04-22 04:07 41.62160 123.45424 2143 ft 167 kts 44°
2026-04-22 04:07 41.62918 123.46618 2138 ft 170 kts 43°
2026-04-22 04:07 41.63675 123.47821 2044 ft 168 kts 46°
2026-04-22 04:07 41.64396 123.49044 2013 ft 166 kts 47°
2026-04-22 04:08 41.65138 123.50250 2028 ft 169 kts 46°
2026-04-22 04:08 41.65904 123.51434 2028 ft 166 kts 44°
2026-04-22 04:08 41.66663 123.52621 2063 ft 171 kts 46°
2026-04-22 04:08 41.67398 123.53829 1989 ft 165 kts 51°
2026-04-22 04:09 41.67583 123.55387 2000 ft 186 kts 100°
2026-04-22 04:09 41.66730 123.56811 2319 ft 216 kts 149°
2026-04-22 04:09 41.65250 123.57201 2828 ft 217 kts 189°
2026-04-22 04:09 41.63892 123.56782 2996 ft 201 kts 199°
2026-04-22 04:10 41.62463 123.56205 3047 ft 211 kts 200°
2026-04-22 04:10 41.61161 123.55597 3203 ft 187 kts 205°
2026-04-22 04:10 41.60028 123.54932 3230 ft 176 kts 209°
2026-04-22 04:10 41.58917 123.54230 3217 ft 178 kts 210°
2026-04-22 04:11 41.57948 123.53266 3236 ft 172 kts 232°
2026-04-22 04:11 41.57127 123.52083 3193 ft 176 kts 231°
2026-04-22 04:11 41.56260 123.50931 3075 ft 175 kts 229°
2026-04-22 04:11 41.55408 123.49796 2936 ft 171 kts 230°
2026-04-22 04:12 41.54593 123.48674 2768 ft 169 kts 233°
2026-04-22 04:12 41.53823 123.47499 2630 ft 166 kts 236°
2026-04-22 04:12 41.53080 123.46324 2594 ft 164 kts 234°
2026-04-22 04:12 41.52383 123.45124 2561 ft 162 kts 243°
2026-04-22 04:13 41.52097 123.43742 2483 ft 149 kts 275°
2026-04-22 04:13 41.52485 123.42514 2297 ft 148 kts 314°
2026-04-22 04:13 41.53286 123.41690 2079 ft 145 kts 323°
2026-04-22 04:13 41.54109 123.40956 1781 ft 141 kts 327°
2026-04-22 04:14 41.55106 123.40533 1637 ft 172 kts 353°
2026-04-22 04:14 41.56296 123.40946 1337 ft 174 kts 22°
2026-04-22 04:14 41.57264 123.41630 1439 ft 142 kts 21°
2026-04-22 04:14 41.58152 123.42026 1318 ft 140 kts
2026-04-22 04:15 41.59126 123.42205 1014 ft 139 kts
2026-04-22 04:15 41.60023 123.42657 920 ft 142 kts 27°
2026-04-22 04:15 41.60785 123.43465 740 ft 138 kts 42°
2026-04-22 04:15 41.61400 123.44427 633 ft 135 kts 47°
2026-04-22 04:16 41.62028 123.45379 543 ft 138 kts 44°
2026-04-22 04:16 41.63274 123.47254 225 ft 130 kts 46°
2026-04-22 04:16 41.63800 123.48034 219 ft 84 kts 49°
2026-04-22 04:17 41.64038 123.48398 211 ft 20 kts 49°
2026-04-22 04:17 41.64094 123.48483 213 ft 13 kts 49°
2026-04-22 04:17 41.64161 123.48584 217 ft 16 kts 49°
2026-04-22 04:17 41.64230 123.48722 219 ft 19 kts 65°
2026-04-22 04:18 41.64270 123.48894 218 ft 21 kts 76°
2026-04-22 04:18 41.64277 123.49026 220 ft 11 kts 115°
2026-04-22 04:18 41.64232 123.49110 222 ft 8 kts 116°
2026-04-22 04:18 41.64240 123.49140 218 ft 3 kts 55°
2026-04-22 04:19 41.64309 123.49200 217 ft 18 kts 29°
2026-04-22 04:19 41.64389 123.49279 216 ft 14 kts 46°
2026-04-22 04:19 41.64392 123.49335 224 ft 3 kts 121°
2026-04-22 04:19 41.64372 123.49356 220 ft 7 kts 147°
2026-04-22 04:20 41.64335 123.49393 219 ft 6 kts 141°
2026-04-22 04:20 41.64320 123.49410 216 ft 0 kts 141°